OBJECT A, 100651

Orbit data source: Space-Track

You're viewing an uncataloged RSO

Recently launched and/or uncataloged RSOs may have evolving metadata. Metadata may include the following, but is not limited to: Owner, Manufacturer, Bus, Motor, and Mission.

OBJECT A, 100651 is a Chinese satellite in LEO that was launched on Thu, 10 Sep 2026 UTC launched from the Jiuquan Satellite Launch Center, China (JSC). Unknown objects in Earth's orbit typically refer to objects detected orbiting the Earth but have not yet been identified or cataloged. These objects could be anything from previously untracked satellites, spent rocket stages, debris from satellite collisions, or even natural meteoroids temporarily captured by Earth's gravity.

Loading next visibility...
Identifier
100651, 2026-205A
Orbit
LEO
Country
Flag of CNCN / PRC
Related business
None
Manufacturer
Unknown
Mission
Operational spacecraft
Bus & Motor
Unknown
Mass
Unknown
Launch date (UTC)
2026-09-10 (3 days ago)
Launch vehicle
Unknown
Launch site
Jiuquan Satellite Launch Center, China (JSC)
Object type
Unknown
Shape & HBR
Unknown
Radar Cross Section
RCS unknown

Expand to show TLE details & history
Last TLE update: 6 hours ago

TLE from 6 hours ago
0 OBJECT A
1 A0651U 26205A   26255.92890774  .00004564  00000-0  24861-3 0  9996
2 A0651  44.9967  94.5778 0006721 279.5890  80.4229 15.15755875   395
Epoch: 2026-09-12T22:17Z
TLE epoch observation values (Epoch: 2026-09-12T22:17:37.628Z)
Latitude
-0.00002°
Longitude
128.24013°
Altitude
517.915 km
Speed
7.607 km/s
True Right ascension
06h 18m 18s
True Declination
0° 00' 00"
Sunlit
Object was in daylight at epoch
Visualization orbit readout
Latitude
Unknown
Longitude
Unknown
Altitude
Unknown
Speed
Unknown
Apparent Right ascension
Unknown
Apparent Declination
Unknown
Sunlit
N/A
Visualization observer readout
Local Sidereal Time
20:48:33
Azimuth
Unknown
Elevation
Unknown
Doppler factor
Unknown
Orbital elements
Apogee altitude
524.923 km
Perigee altitude
515.65 km
Semi-major axis
6,898.423 km
Eccentricity
0.00067
Inclination
44.9967°
RAAN
94.5778°
Arg. of periapsis
279.589°
True anomaly
80.49885°
Mean anomaly
80.4229°
Eccentric anomaly
80.46088°
Mean motion
3.78807 °/min
Orbital period
95.04 mins
BSTAR
0.00024861
Loading maneuver chart data...
Computing Atmospheric mass density...
Loading historical data...
Loading historical data...
Loading historical data...
Loading historical data...
Loading historical data...
Loading historical data...
Loading historical data...
Other satellites on launch #205 in the year 2026 (2026-09-10 UTC)

Documentation

Showing up to 5 results
|